Location: Arborea
(39.7744°N, 8.5819°E)
Time: 15:59:10
(UTC+00:00)

Cosmos 332 Rocket - Pass Details

Date: 31 May 2022
Orbit: 681 x 703 km, 74.0° (Epoch: 29 June)

Event Time Altitude Azimuth Distance (km) Brightness Sun altitude
Exits shadow 23:31:39 61° 11° (N) 775 4.2 -28.2°
Drops below altitude 10° 23:35:37 10° 18° (NNE) 2,130 7.2 -28.1°
Sets 23:37:55 0° 19° (NNE) 3,050 8.3 -28.1°
